sat.trackr.live / text

‹ back to catalog

TIANHUI 2-01B

NORAD 44209 · 2019-024C

PAYLOAD ACTIVE UNKNOWN

§ Identity

Operator
Country
PRC
Launch date
2019-04-29
Launch site
TAISC
Launch vehicle
Mass (kg)
RCS (m²)

External: N2YO · Heavens-Above · Gunter

§ Orbital elements

Epoch: 2026-09-02T11:30:10.916928Z

Period
94.94 min
Inclination
97.4841°
Eccentricity
0.0001858
Mean motion
15.16766096 rev/d
Perigee alt
514.3 km
Apogee alt
516.9 km
Semi-major
6,893.8 km
B*
5.6983e-5
RAAN
248.3985°
Arg perigee
97.7358°
Mean anomaly
262.4086°
Rev number
40,642

§ Raw data

TIANHUI 2-01B1 44209U 19024C   26245.47929302  .00001052  00000+0  56983-4 0  99922 44209  97.4841 248.3985 0001858  97.7358 262.4086 15.16766096406425

JSON: /api/v1/satellites/44209 · /tle

For live sub-satellite position, see the globe view (requires WebGL).

§ Visibility from observer

Set your observer location to see the next 7 days of passes ≥ 10°. The values pass through the URL so the page stays shareable.

No JS? Fill the form by hand. The geolocation button needs JavaScript.